Location: Newark
(44.5208°N, 2.4294°E)
Time: 13:55:18
(UTC+00:00)

Envisat - Pass Details

Date: 29 September 2019
Orbit: 764 x 766 km, 98.1° (Epoch: 15 October)

Event Time Altitude Azimuth Distance (km) Brightness Sun altitude
Rises 18:48:23 0° 195° (SSW) 3,218 6.3 -13.8°
Reaches altitude 10° 18:50:58 10° 206° (SSW) 2,297 5.7 -14.2°
Maximum altitude 18:55:19 28° 266° (W) 1,403 5.2 -15.0°
Drops below altitude 10° 18:59:41 10° 325° (NW) 2,311 6.2 -15.8°
Sets 19:02:18 0° 337° (NNW) 3,242 6.8 -16.2°
